Notices

What's New in latest Release from April 7th, 2021:

- Updated Glossary, including Speed of Maximum Gust, and Total Hourly Precipitation

- Updated national and regional climate services offices contacts and prices information

- Addition of station inventory lists for 1981-2010, 1971-2000, and 1961-1990 Normals.

If you haven't already, please take our survey and provide feedback about our website: https://eccc.sondage-survey.ca/f/LanguageSelection.aspx?s=442ca660-fcf1-47c0-95a9-59707d6fd709

Hourly Data Report for July 21, 2018

OTTAWA INTL A
ONTARIO
Current Station Operator: NAVCAN

45°19'00.000" N
75°40'00.000" W
114.90 m
6106001
71628
YOW

Download Data

Hourly Data (July 2018)
Hourly Data Report for July 21, 2018
TIME
LST
Temp Definition
°C
Dew Point Definition
°C
Rel Hum Definition
%
Precip. Amount Definition
mm

Wind Dir Definition
10's deg

Wind Spd Definition
km/h
Visibility Definition
km
Stn Press Definition
kPa
Hmdx Definition


Wind Chill Definition


Weather Definition


00:00 20.3 15.2 72   13 15 24.1 100.31     LegendNANA
01:00 20.2 14.5 70   14 13 24.1 100.31     Mainly Clear
02:00 19.9 13.8 68   16 10 24.1 100.35     LegendNANA
03:00 19.1 13.6 70   17 7 24.1 100.38     LegendNANA
04:00 17.6 13.4 76   16 10 24.1 100.40     Mainly Clear
05:00 16.9 13.4 80   15 7 24.1 100.41     LegendNANA
06:00 19.7 14.4 71   15 10 24.1 100.46     LegendNANA
07:00 22.1 14.7 62   15 12 24.1 100.48 26   Mainly Clear
08:00 24.4 13.6 51   15 16 24.1 100.49 28   LegendNANA
09:00 25.9 12.9 44   15 23 24.1 100.50 29   LegendNANA
10:00 27.4 11.2 36   13 24 24.1 100.47 29   Mostly Cloudy
11:00 27.9 13.1 39   13 19 24.1 100.45 31   LegendNANA
12:00 27.4 13.5 42   12 16 24.1 100.41 30   LegendNANA
13:00 29.3 14.3 39   10 21 24.1 100.34 33   Mostly Cloudy
14:00 30.1 12.7 34   12 23 24.1 100.27 33   LegendNANA
15:00 31.2 12.5 31   8 20 24.1 100.21 34   LegendNANA
16:00 31.0 11.4 29   11 24 24.1 100.18 33   Mostly Cloudy
17:00 30.2 13.4 35   12 11 24.1 100.17 33   LegendNANA
18:00 28.5 13.3 38   8 23 24.1 100.18 31   LegendNANA
19:00 27.4 11.6 37   7 15 24.1 100.19 29   Mostly Cloudy
20:00 25.6 13.0 45   6 14 24.1 100.22 28   LegendNANA
21:00 23.9 13.5 51   6 19 24.1 100.21 27   LegendNANA
22:00 22.2 13.3 57   10 16 24.1 100.24 25   Mostly Cloudy
23:00 21.2 13.0 59   10 16 24.1 100.25     LegendNANA

Notes on Data Quality.

Legend

  • E = Estimated
  • M = Missing
  • NA = Not Available*
  • [empty] = Indicates an unobserved value
Date modified: